Location: Braden Valley Church
(38.0012°N, 88.6106°W)
Time: 03:31:39
(UTC+00:00)

CZ-2C R/B - Pass Details

Date: 08 December 2021
Orbit: 386 x 571 km, 35.0° (Epoch: 21 January)

Event Time Altitude Azimuth Distance (km) Brightness Sun altitude
Rises 23:25:06 0° 254° (WSW) 2,768 7.2 -9.8°
Reaches altitude 10° 23:27:26 10° 250° (WSW) 1,866 5.7 -10.2°
Maximum altitude 23:31:40 54° 173° (S) 686 1.9 -11.0°
Enters shadow 23:35:12 14° 98° (E) 1,592 3.1 -11.7°
